START_TIME,STEP,MOV.,M34,t_acc.,L5,t_acc.,L18,t_acc.,L14,t_acc.
1979-08-07 15:00:23.180 ,1,0,0.,12.0,0.,12.0,0.,12.0,0.,12.0
1979-08-07 15:00:35.180 ,1,0,0.,12.0,0.,12.0,0.,12.0,0.,12.0
1979-08-07 15:00:47.180 ,2,1,0.,12.0,0.,12.0,0.,12.0,0.,12.0
1979-08-07 15:00:59.180 ,2,1,0.,12.0,0.,12.0,0.,12.0,0.,12.0
1979-08-07 15:01:11.180 ,2,0,0.,12.0,0.,12.0,0.,12.0,0.,12.0
1979-08-07 15:01:23.180 ,2,0,0.,12.0,0.,12.0,0.,12.0,0.,12.0
1979-08-07 15:01:35.180 ,3,1,0.,12.0,0.,12.0,0.,12.0,0.,12.0
1979-08-07 15:01:47.180 ,3,1,0.,12.0,0.,12.0,0.,12.0,0.,12.0
1979-08-07 15:01:59.180 ,3,0,0.,12.0,0.,12.0,0.,12.0,0.,12.0
1979-08-07 15:02:11.180 ,3,0,0.,12.0,0.,12.0,0.,12.0,0.,12.0
1979-08-07 15:02:23.180 ,4,1,0.,12.0,0.,12.0,0.,12.0,0.,12.0
1979-08-07 15:02:35.180 ,4,1,0.,12.0,0.,12.0,0.,12.0,0.,12.0
1979-08-07 15:02:47.180 ,4,0,0.,12.0,0.,12.0,0.,12.0,0.,12.0
1979-08-07 15:02:59.180 ,4,0,0.,12.0,0.,12.0,0.,12.0,0.,12.0
1979-08-07 15:03:11.180 ,5,1,0.,12.0,0.,12.0,0.,12.0,0.,12.0
1979-08-07 15:03:23.180 ,5,1,0.,12.0,0.,12.0,0.,12.0,0.,12.0
1979-08-07 15:03:35.180 ,5,0,0.,12.0,0.,12.0,0.,12.0,0.,12.0
1979-08-07 15:03:47.180 ,5,0,0.,12.0,0.,12.0,0.,12.0,0.,12.0
1979-08-07 15:03:59.180 ,6,1,0.,12.0,0.,12.0,0.,12.0,0.,12.0
1979-08-07 15:04:11.180 ,6,1,0.,12.0,0.,12.0,0.,12.0,0.,12.0
1979-08-07 15:04:23.180 ,6,0,0.,12.0,0.,12.0,0.,12.0,0.,12.0
1979-08-07 15:04:35.180 ,6,0,0.,12.0,0.,12.0,0.,12.0,0.,12.0
1979-08-07 15:04:47.180 ,7,1,0.,12.0,0.,12.0,0.,12.0,0.,12.0
1979-08-07 15:04:59.180 ,7,1,0.,12.0,0.,12.0,0.,12.0,0.,12.0
1979-08-07 15:05:11.180 ,7,0,0.,12.0,0.,12.0,0.,12.0,0.,12.0
1979-08-07 15:05:23.180 ,7,0,0.,12.0,0.,12.0,0.,12.0,0.,12.0
1979-08-07 15:05:35.180 ,7,1,0.,12.0,0.,12.0,0.,12.0,0.,12.0
1979-08-07 15:05:47.180 ,7,1,0.,12.0,0.,12.0,0.,12.0,0.,12.0
1979-08-07 15:05:59.180 ,7,0,0.,12.0,0.,12.0,0.,12.0,0.,12.0
1979-08-07 15:06:11.180 ,7,0,0.,12.0,0.,12.0,0.,12.0,0.,12.0
1979-08-07 15:06:23.180 ,6,1,0.,12.0,0.,12.0,0.,12.0,0.,12.0
1979-08-07 15:06:35.180 ,6,1,0.,12.0,0.,12.0,0.,12.0,0.,12.0
1979-08-07 15:06:47.180 ,6,0,0.,12.0,0.,12.0,0.,12.0,0.,12.0
1979-08-07 15:06:59.180 ,6,0,0.,12.0,0.,12.0,0.,12.0,0.,12.0
1979-08-07 15:07:11.180 ,5,1,0.,12.0,0.,12.0,0.,12.0,0.,12.0
1979-08-07 15:07:23.180 ,5,1,0.,12.0,0.,12.0,0.,12.0,0.,12.0
1979-08-07 15:07:35.180 ,5,0,0.,12.0,0.,12.0,0.,12.0,0.,12.0
1979-08-07 15:07:47.180 ,5,0,0.,12.0,0.,12.0,0.,12.0,0.,12.0
1979-08-07 15:07:59.180 ,4,1,0.,12.0,0.,12.0,0.,12.0,0.,12.0
1979-08-07 15:08:11.180 ,4,1,0.,12.0,0.,12.0,0.,12.0,0.,12.0
1979-08-07 15:08:23.180 ,4,0,0.,12.0,0.,12.0,0.,12.0,0.,12.0
1979-08-07 15:08:35.180 ,4,0,0.,12.0,0.,12.0,0.,12.0,0.,12.0
1979-08-07 15:08:47.180 ,3,1,0.,12.0,0.,12.0,0.,12.0,0.,12.0
1979-08-07 15:08:59.180 ,3,1,0.,12.0,0.,12.0,0.,12.0,0.,12.0
1979-08-07 15:09:11.180 ,3,0,0.,12.0,0.,12.0,0.,12.0,0.,12.0
1979-08-07 15:09:23.180 ,3,0,0.,12.0,0.,12.0,0.,12.0,0.,12.0
1979-08-07 15:09:35.180 ,2,1,0.,12.0,0.,12.0,0.,12.0,0.,12.0
1979-08-07 15:09:47.180 ,2,1,0.,12.0,0.,12.0,0.,12.0,0.,12.0
1979-08-07 15:09:59.180 ,2,0,0.,12.0,0.,12.0,0.,12.0,0.,12.0
1979-08-07 15:10:11.180 ,2,0,0.,12.0,0.,12.0,0.,12.0,0.,12.0
1979-08-07 15:10:23.180 ,1,1,0.,12.0,0.,12.0,0.,12.0,0.,12.0
1979-08-07 15:10:35.180 ,1,1,0.,12.0,0.,12.0,0.,12.0,0.,12.0
1979-08-07 15:10:47.180 ,1,0,0.,12.0,0.,12.0,0.,12.0,0.,12.0
1979-08-07 15:10:59.180 ,1,0,0.,12.0,0.,12.0,0.,12.0,0.,12.0
1979-08-07 15:11:11.180 ,0,1,0.,12.0,0.,12.0,0.,12.0,0.,12.0
1979-08-07 15:11:23.180 ,0,1,0.,12.0,0.,12.0,0.,12.0,0.,12.0
1979-08-07 15:11:35.180 ,0,0,0.,12.0,0.,12.0,0.,12.0,0.,12.0
1979-08-07 15:11:47.180 ,0,0,0.,12.0,0.,12.0,0.,12.0,0.,12.0
1979-08-07 15:11:59.180 ,0,1,0.,12.0,0.,12.0,0.,12.0,0.,12.0
1979-08-07 15:12:11.180 ,0,1,0.,12.0,0.,12.0,0.,12.0,0.,12.0
1979-08-07 15:12:23.180 ,0,0,0.,12.0,0.,12.0,0.,12.0,0.,12.0
1979-08-07 15:12:35.180 ,0,0,,0,,0,,0,,0
1979-08-07 15:12:47.180 ,1,1,0.,12.0,0.,12.0,0.,12.0,0.,12.0
1979-08-07 15:12:59.180 ,1,1,0.,12.0,0.,12.0,0.,12.0,0.,12.0
1979-08-07 15:13:11.180 ,1,0,0.,12.0,0.,12.0,0.,12.0,0.,12.0
1979-08-07 15:13:23.180 ,1,0,0.,12.0,0.,12.0,0.,12.0,0.,12.0
1979-08-07 15:13:35.180 ,2,1,0.,12.0,0.,12.0,0.,12.0,0.,12.0
1979-08-07 15:13:47.180 ,2,1,0.,12.0,0.,12.0,0.,12.0,0.,12.0
1979-08-07 15:13:59.180 ,2,0,0.,12.0,0.,12.0,0.,12.0,0.,12.0
1979-08-07 15:14:11.180 ,2,0,0.,12.0,0.,12.0,0.,12.0,0.,12.0
1979-08-07 15:14:23.180 ,3,1,0.,12.0,0.,12.0,0.,12.0,0.,12.0
1979-08-07 15:14:35.180 ,3,1,0.,12.0,0.,12.0,0.,12.0,0.,12.0
1979-08-07 15:14:47.180 ,3,0,0.,12.0,0.,12.0,0.,12.0,0.,12.0
1979-08-07 15:14:59.180 ,3,0,0.,12.0,0.,12.0,0.,12.0,0.,12.0
1979-08-07 15:15:11.180 ,4,1,0.,12.0,0.,12.0,0.,12.0,0.,12.0
1979-08-07 15:15:23.180 ,4,1,0.,12.0,0.,12.0,0.,12.0,0.,12.0
1979-08-07 15:15:35.180 ,4,0,0.,12.0,0.,12.0,0.,12.0,0.,12.0
1979-08-07 15:15:47.180 ,4,0,1.,12.0,0.,12.0,0.,12.0,0.,12.0
1979-08-07 15:15:59.180 ,5,1,0.,12.0,0.,12.0,0.,12.0,0.,12.0
1979-08-07 15:16:11.180 ,5,1,0.,12.0,0.,12.0,0.,12.0,0.,12.0
1979-08-07 15:16:23.180 ,5,0,0.,12.0,0.,12.0,0.,12.0,0.,12.0
1979-08-07 15:16:35.180 ,5,0,0.,12.0,0.,12.0,0.,12.0,0.,12.0
1979-08-07 15:16:47.180 ,6,1,0.,12.0,0.,12.0,0.,12.0,0.,12.0
1979-08-07 15:16:59.180 ,6,1,0.,12.0,0.,12.0,0.,12.0,0.,12.0
1979-08-07 15:17:11.180 ,6,0,0.,12.0,0.,12.0,0.,12.0,0.,12.0
1979-08-07 15:17:23.180 ,6,0,0.,12.0,0.,12.0,0.,12.0,0.,12.0
1979-08-07 15:17:35.180 ,7,1,0.,12.0,0.,12.0,0.,12.0,0.,12.0
1979-08-07 15:17:47.180 ,7,1,0.,12.0,0.,12.0,0.,12.0,0.,12.0
1979-08-07 15:17:59.180 ,7,0,0.,12.0,0.,12.0,0.,12.0,0.,12.0
1979-08-07 15:18:11.180 ,7,0,0.,12.0,0.,12.0,0.,12.0,0.,12.0
1979-08-07 15:17:59.180 ,7,0,0.,12.0,0.,12.0,0.,12.0,0.,12.0
1979-08-07 15:18:11.180 ,7,0,0.,12.0,0.,12.0,0.,12.0,0.,12.0
1979-08-07 15:18:23.180 ,7,1,0.,12.0,0.,12.0,0.,12.0,0.,12.0
1979-08-07 15:18:35.180 ,7,1,0.,12.0,0.,12.0,0.,12.0,0.,12.0
1979-08-07 15:18:47.180 ,7,0,0.,12.0,0.,12.0,0.,12.0,0.,12.0
1979-08-07 15:18:59.180 ,7,0,0.,12.0,0.,12.0,0.,12.0,0.,12.0
1979-08-07 15:19:11.180 ,6,1,0.,12.0,0.,12.0,0.,12.0,0.,12.0
1979-08-07 15:19:23.180 ,6,1,0.,12.0,0.,12.0,0.,12.0,0.,12.0
1979-08-07 15:19:35.180 ,6,0,0.,12.0,0.,12.0,0.,12.0,0.,12.0
1979-08-07 15:19:47.180 ,6,0,0.,12.0,0.,12.0,0.,12.0,0.,12.0
1979-08-07 15:19:59.180 ,5,1,0.,12.0,0.,12.0,0.,12.0,0.,12.0
1979-08-07 15:20:11.180 ,5,1,0.,12.0,0.,12.0,0.,12.0,0.,12.0
1979-08-07 15:20:23.180 ,5,0,0.,12.0,0.,12.0,0.,12.0,0.,12.0
1979-08-07 15:20:35.180 ,5,0,0.,12.0,0.,12.0,0.,12.0,0.,12.0
1979-08-07 15:20:47.180 ,4,1,0.,12.0,0.,12.0,0.,12.0,0.,12.0
1979-08-07 15:20:59.180 ,4,1,0.,12.0,0.,12.0,0.,12.0,0.,12.0
1979-08-07 15:21:11.180 ,4,0,0.,12.0,0.,12.0,0.,12.0,0.,12.0
1979-08-07 15:21:23.180 ,4,0,0.,12.0,0.,12.0,0.,12.0,0.,12.0
1979-08-07 15:21:35.180 ,3,1,0.,12.0,0.,12.0,0.,12.0,0.,12.0
1979-08-07 15:21:47.180 ,3,1,0.,12.0,0.,12.0,0.,12.0,0.,12.0
1979-08-07 15:21:59.180 ,3,0,0.,12.0,0.,12.0,0.,12.0,0.,12.0
1979-08-07 15:22:11.180 ,3,0,0.,12.0,0.,12.0,0.,12.0,0.,12.0
1979-08-07 15:22:23.180 ,2,1,0.,12.0,0.,12.0,0.,12.0,0.,12.0
1979-08-07 15:22:35.180 ,2,1,0.,12.0,0.,12.0,0.,12.0,0.,12.0
1979-08-07 15:22:47.180 ,2,0,0.,12.0,0.,12.0,0.,12.0,0.,12.0
1979-08-07 15:22:59.180 ,2,0,0.,12.0,0.,12.0,0.,12.0,0.,12.0
1979-08-07 15:23:11.180 ,1,1,0.,12.0,0.,12.0,0.,12.0,0.,12.0
1979-08-07 15:23:23.180 ,1,1,0.,12.0,0.,12.0,0.,12.0,0.,12.0
1979-08-07 15:23:35.180 ,1,0,0.,12.0,0.,12.0,0.,12.0,0.,12.0
1979-08-07 15:23:47.180 ,1,0,0.,12.0,0.,12.0,0.,12.0,0.,12.0
1979-08-07 15:23:59.180 ,0,1,0.,12.0,0.,12.0,0.,12.0,0.,12.0
1979-08-07 15:24:11.180 ,0,1,0.,12.0,0.,12.0,0.,12.0,0.,12.0
1979-08-07 15:24:23.180 ,0,0,0.,12.0,0.,12.0,0.,12.0,0.,12.0
1979-08-07 15:24:35.180 ,0,0,0.,12.0,0.,12.0,0.,12.0,0.,12.0
1979-08-07 15:24:47.180 ,0,1,0.,12.0,0.,12.0,0.,12.0,0.,12.0
1979-08-07 15:24:59.180 ,0,1,0.,12.0,0.,12.0,0.,12.0,0.,12.0
1979-08-07 15:25:11.180 ,0,0,0.,12.0,0.,12.0,0.,12.0,0.,12.0
1979-08-07 15:25:23.180 ,0,0,0.,12.0,0.,12.0,0.,12.0,0.,12.0
1979-08-07 15:25:35.180 ,1,1,0.,12.0,0.,12.0,0.,12.0,0.,12.0
1979-08-07 15:25:47.180 ,1,1,0.,12.0,0.,12.0,0.,12.0,0.,12.0
1979-08-07 15:25:59.180 ,1,0,0.,12.0,0.,12.0,0.,12.0,0.,12.0
1979-08-07 15:26:11.180 ,1,0,0.,12.0,0.,12.0,0.,12.0,0.,12.0
1979-08-07 15:26:23.180 ,2,1,0.,12.0,0.,12.0,0.,12.0,0.,12.0
1979-08-07 15:26:35.180 ,2,1,0.,12.0,0.,12.0,0.,12.0,0.,12.0
1979-08-07 15:26:47.180 ,2,0,0.,12.0,0.,12.0,0.,12.0,0.,12.0
1979-08-07 15:26:59.180 ,2,0,0.,12.0,0.,12.0,0.,12.0,0.,12.0
1979-08-07 15:27:11.180 ,3,1,0.,12.0,0.,12.0,0.,12.0,0.,12.0
1979-08-07 15:27:23.180 ,3,1,0.,12.0,0.,12.0,0.,12.0,0.,12.0
1979-08-07 15:27:35.180 ,3,0,0.,12.0,0.,12.0,0.,12.0,0.,12.0
1979-08-07 15:27:47.180 ,3,0,0.,12.0,0.,12.0,0.,12.0,0.,12.0
1979-08-07 15:27:59.180 ,4,1,0.,12.0,0.,12.0,0.,12.0,0.,12.0
1979-08-07 15:28:11.180 ,4,1,0.,12.0,0.,12.0,0.,12.0,0.,12.0
1979-08-07 15:28:23.180 ,4,0,0.,12.0,0.,12.0,0.,12.0,0.,12.0
1979-08-07 15:28:35.180 ,4,0,0.,12.0,0.,12.0,0.,12.0,0.,12.0
1979-08-07 15:28:47.180 ,5,1,0.,12.0,0.,12.0,0.,12.0,0.,12.0
1979-08-07 15:28:59.180 ,5,1,0.,12.0,0.,12.0,0.,12.0,0.,12.0
1979-08-07 15:29:11.180 ,5,0,0.,12.0,0.,12.0,0.,12.0,0.,12.0
1979-08-07 15:29:23.180 ,5,0,0.,12.0,0.,12.0,0.,12.0,0.,12.0
1979-08-07 15:29:35.180 ,6,1,0.,12.0,0.,12.0,0.,12.0,0.,12.0
1979-08-07 15:29:47.180 ,6,1,0.,12.0,0.,12.0,0.,12.0,0.,12.0
1979-08-07 15:29:59.180 ,6,0,0.,12.0,0.,12.0,0.,12.0,0.,12.0
1979-08-07 15:30:11.180 ,6,0,0.,12.0,0.,12.0,0.,12.0,0.,12.0
1979-08-07 15:30:23.180 ,7,0,0.,12.0,0.,12.0,0.,12.0,0.,12.0
1979-08-07 15:30:35.180 ,7,0,0.,12.0,0.,12.0,0.,12.0,0.,12.0
1979-08-07 15:30:47.180 ,7,0,0.,12.0,0.,12.0,0.,12.0,0.,12.0
1979-08-07 15:30:59.180 ,7,0,0.,12.0,0.,12.0,0.,12.0,0.,12.0
1979-08-07 15:31:11.180 ,4,1,0.,12.0,0.,12.0,0.,12.0,0.,12.0
1979-08-07 15:31:23.180 ,4,1,0.,12.0,0.,12.0,0.,12.0,0.,12.0
1979-08-07 15:31:35.180 ,0,1,0.,12.0,0.,12.0,0.,12.0,0.,12.0
1979-08-07 15:31:47.180 ,0,1,0.,12.0,0.,12.0,0.,12.0,0.,12.0
1979-08-07 15:31:59.180 ,3,1,0.,12.0,0.,12.0,0.,12.0,0.,12.0
1979-08-07 15:32:11.180 ,3,1,0.,12.0,0.,12.0,0.,12.0,0.,12.0
1979-08-07 15:32:23.180 ,7,1,0.,12.0,0.,12.0,0.,12.0,0.,12.0
1979-08-07 15:32:35.180 ,7,1,0.,12.0,0.,12.0,0.,12.0,0.,12.0
1979-08-07 15:32:47.180 ,4,1,0.,12.0,0.,12.0,0.,12.0,0.,12.0
1979-08-07 15:32:59.180 ,4,1,0.,12.0,0.,12.0,0.,12.0,0.,12.0
1979-08-07 15:33:11.180 ,0,1,0.,12.0,0.,12.0,0.,12.0,0.,12.0
1979-08-07 15:33:23.180 ,0,1,0.,12.0,0.,12.0,0.,12.0,0.,12.0
1979-08-07 15:33:35.180 ,3,1,0.,12.0,0.,12.0,0.,12.0,0.,12.0
1979-08-07 15:33:47.180 ,3,1,0.,12.0,0.,12.0,0.,12.0,0.,12.0
1979-08-07 15:33:59.180 ,7,1,0.,12.0,0.,12.0,0.,12.0,0.,12.0
1979-08-07 15:34:11.180 ,7,1,0.,12.0,0.,12.0,0.,12.0,0.,12.0
1979-08-07 15:34:23.180 ,4,1,0.,12.0,0.,12.0,0.,12.0,0.,12.0
1979-08-07 15:34:35.180 ,4,1,0.,12.0,0.,12.0,0.,12.0,0.,12.0
1979-08-07 15:34:47.180 ,0,1,0.,12.0,0.,12.0,0.,12.0,0.,12.0
1979-08-07 15:34:59.180 ,0,1,0.,12.0,0.,12.0,0.,12.0,0.,12.0
1979-08-07 15:35:11.180 ,3,1,0.,12.0,0.,12.0,0.,12.0,0.,12.0
1979-08-07 15:35:23.180 ,3,1,0.,12.0,0.,12.0,0.,12.0,0.,12.0
1979-08-07 15:35:35.180 ,7,1,0.,12.0,0.,12.0,0.,12.0,0.,12.0
1979-08-07 15:35:47.180 ,7,1,0.,12.0,0.,12.0,0.,12.0,0.,12.0
1979-08-07 15:36:47.180 ,0,0,0.,12.0,0.,12.0,0.,12.0,0.,12.0
1979-08-07 15:36:59.180 ,0,0,0.,12.0,0.,12.0,0.,12.0,0.,12.0
1979-08-07 15:37:11.180 ,7,1,0.,12.0,0.,12.0,0.,12.0,0.,12.0
1979-08-07 15:37:23.180 ,7,1,0.,12.0,0.,12.0,0.,12.0,0.,12.0
1979-08-07 15:37:35.180 ,4,1,0.,12.0,0.,12.0,0.,12.0,0.,12.0
1979-08-07 15:37:47.180 ,4,1,0.,12.0,0.,12.0,0.,12.0,0.,12.0
1979-08-07 15:37:59.180 ,0,1,0.,12.0,0.,12.0,0.,12.0,0.,12.0
1979-08-07 15:38:11.180 ,0,1,0.,12.0,0.,12.0,0.,12.0,0.,12.0
1979-08-07 15:38:23.180 ,3,1,0.,12.0,0.,12.0,0.,12.0,0.,12.0
1979-08-07 15:38:35.180 ,3,1,0.,12.0,0.,12.0,0.,12.0,0.,12.0
1979-08-07 15:38:47.180 ,7,1,0.,12.0,0.,12.0,0.,12.0,0.,12.0
1979-08-07 15:38:59.180 ,7,1,0.,12.0,0.,12.0,0.,12.0,0.,12.0
1979-08-07 15:39:11.180 ,4,1,0.,12.0,0.,12.0,0.,12.0,0.,12.0
1979-08-07 15:39:23.180 ,4,1,0.,12.0,0.,12.0,0.,12.0,0.,12.0
1979-08-07 15:39:35.180 ,0,1,0.,12.0,0.,12.0,0.,12.0,0.,12.0
1979-08-07 15:39:47.180 ,0,1,0.,12.0,0.,12.0,0.,12.0,0.,12.0
1979-08-07 15:39:59.180 ,3,1,0.,12.0,0.,12.0,0.,12.0,0.,12.0
1979-08-07 15:40:11.180 ,3,1,0.,12.0,0.,12.0,0.,12.0,0.,12.0
1979-08-07 15:40:23.180 ,7,1,0.,12.0,0.,12.0,0.,12.0,0.,12.0
1979-08-07 15:40:35.180 ,7,1,0.,12.0,0.,12.0,0.,12.0,0.,12.0
1979-08-07 15:40:47.180 ,4,1,0.,12.0,0.,12.0,0.,12.0,0.,12.0
1979-08-07 15:40:59.180 ,4,1,0.,12.0,0.,12.0,0.,12.0,0.,12.0
1979-08-07 15:41:11.180 ,0,1,0.,12.0,0.,12.0,0.,12.0,0.,12.0
1979-08-07 15:41:23.180 ,0,1,0.,12.0,0.,12.0,0.,12.0,0.,12.0
1979-08-07 15:41:35.180 ,0,0,0.,12.0,0.,12.0,0.,12.0,0.,12.0
1979-08-07 15:41:47.180 ,0,0,0.,12.0,0.,12.0,0.,12.0,0.,12.0
1979-08-07 15:41:59.180 ,0,0,0.,12.0,0.,12.0,0.,12.0,0.,12.0
1979-08-07 15:42:11.180 ,0,0,0.,12.0,0.,12.0,0.,12.0,0.,12.0
1979-08-07 15:42:23.180 ,5,1,0.,12.0,0.,12.0,0.,12.0,0.,12.0
1979-08-07 15:42:35.180 ,5,1,0.,12.0,0.,12.0,0.,12.0,0.,12.0
1979-08-07 15:42:47.180 ,5,0,0.,12.0,0.,12.0,0.,12.0,0.,12.0
1979-08-07 15:42:59.180 ,5,0,0.,12.0,0.,12.0,0.,12.0,0.,12.0
1979-08-07 15:43:11.180 ,4,1,0.,12.0,0.,12.0,0.,12.0,0.,12.0
1979-08-07 15:43:23.180 ,4,1,0.,12.0,0.,12.0,0.,12.0,0.,12.0
1979-08-07 15:43:35.180 ,4,0,0.,12.0,0.,12.0,0.,12.0,0.,12.0
1979-08-07 15:43:47.180 ,4,0,0.,12.0,0.,12.0,0.,12.0,0.,12.0
1979-08-07 15:43:59.180 ,3,1,0.,12.0,0.,12.0,0.,12.0,0.,12.0
1979-08-07 15:44:11.180 ,3,1,0.,12.0,0.,12.0,0.,12.0,0.,12.0
1979-08-07 15:44:23.180 ,3,0,0.,12.0,0.,12.0,0.,12.0,0.,12.0
1979-08-07 15:44:35.180 ,3,0,0.,12.0,0.,12.0,0.,12.0,0.,12.0
1979-08-07 15:44:47.180 ,2,1,0.,12.0,0.,12.0,0.,12.0,0.,12.0
1979-08-07 15:44:59.180 ,2,1,0.,12.0,0.,12.0,0.,12.0,0.,12.0
1979-08-07 15:45:11.180 ,2,0,0.,12.0,0.,12.0,0.,12.0,0.,12.0
1979-08-07 15:45:23.180 ,2,0,0.,12.0,0.,12.0,0.,12.0,0.,12.0
1979-08-07 15:45:35.180 ,1,1,0.,12.0,0.,12.0,0.,12.0,0.,12.0
1979-08-07 15:45:47.180 ,1,1,0.,12.0,0.,12.0,0.,12.0,0.,12.0
1979-08-07 15:45:59.180 ,1,0,0.,12.0,0.,12.0,0.,12.0,0.,12.0
1979-08-07 15:46:11.180 ,1,0,0.,12.0,0.,12.0,0.,12.0,0.,12.0
1979-08-07 15:46:23.180 ,0,1,0.,12.0,0.,12.0,0.,12.0,0.,12.0
1979-08-07 15:46:35.180 ,0,1,0.,12.0,0.,12.0,0.,12.0,0.,12.0
1979-08-07 15:46:47.180 ,0,0,0.,12.0,0.,12.0,0.,12.0,0.,12.0
1979-08-07 15:46:59.180 ,0,0,0.,12.0,0.,12.0,0.,12.0,0.,12.0
1979-08-07 15:47:11.180 ,0,1,0.,12.0,0.,12.0,0.,12.0,0.,12.0
1979-08-07 15:47:23.180 ,0,1,0.,12.0,0.,12.0,0.,12.0,0.,12.0
1979-08-07 15:47:35.180 ,0,0,0.,12.0,0.,12.0,0.,12.0,0.,12.0
1979-08-07 15:47:47.180 ,0,0,0.,12.0,0.,12.0,0.,12.0,0.,12.0
1979-08-07 15:47:59.180 ,1,1,0.,12.0,0.,12.0,0.,12.0,0.,12.0
1979-08-07 15:48:11.180 ,1,1,0.,12.0,0.,12.0,0.,12.0,0.,12.0
1979-08-07 15:48:23.180 ,1,0,0.,12.0,0.,12.0,0.,12.0,0.,12.0
1979-08-07 15:48:35.180 ,1,0,0.,12.0,0.,12.0,0.,12.0,0.,12.0
1979-08-07 15:48:47.180 ,2,1,0.,12.0,0.,12.0,0.,12.0,0.,12.0
1979-08-07 15:48:59.180 ,2,1,0.,12.0,0.,12.0,0.,12.0,0.,12.0
1979-08-07 15:49:11.180 ,2,0,0.,12.0,0.,12.0,0.,12.0,0.,12.0
1979-08-07 15:49:23.180 ,2,0,0.,12.0,0.,12.0,0.,12.0,0.,12.0
1979-08-07 15:49:35.180 ,3,1,0.,12.0,0.,12.0,0.,12.0,0.,12.0
1979-08-07 15:49:47.180 ,3,1,0.,12.0,0.,12.0,0.,12.0,0.,12.0
1979-08-07 15:49:59.180 ,3,0,0.,12.0,0.,12.0,0.,12.0,0.,12.0
1979-08-07 15:50:11.180 ,3,0,0.,12.0,0.,12.0,0.,12.0,0.,12.0
1979-08-07 15:50:23.180 ,4,1,0.,12.0,0.,12.0,0.,12.0,0.,12.0
1979-08-07 15:50:35.180 ,4,1,0.,12.0,0.,12.0,0.,12.0,0.,12.0
1979-08-07 15:50:47.180 ,4,0,0.,12.0,0.,12.0,0.,12.0,0.,12.0
1979-08-07 15:50:59.180 ,4,0,0.,12.0,0.,12.0,0.,12.0,0.,12.0
1979-08-07 15:51:11.180 ,5,1,0.,12.0,0.,12.0,0.,12.0,0.,12.0
1979-08-07 15:51:23.180 ,5,1,0.,12.0,0.,12.0,0.,12.0,0.,12.0
1979-08-07 15:51:35.180 ,5,0,0.,12.0,0.,12.0,0.,12.0,0.,12.0
1979-08-07 15:51:47.180 ,5,0,0.,12.0,0.,12.0,0.,12.0,0.,12.0
1979-08-07 15:51:59.180 ,6,1,0.,12.0,0.,12.0,0.,12.0,0.,12.0
1979-08-07 15:52:11.180 ,6,1,0.,12.0,0.,12.0,0.,12.0,0.,12.0
1979-08-07 15:52:23.180 ,6,0,0.,12.0,0.,12.0,0.,12.0,0.,12.0
1979-08-07 15:52:35.180 ,6,0,0.,12.0,0.,12.0,0.,12.0,0.,12.0
1979-08-07 15:52:47.180 ,7,1,0.,12.0,0.,12.0,0.,12.0,0.,12.0
1979-08-07 15:52:59.180 ,7,1,0.,12.0,0.,12.0,0.,12.0,0.,12.0
1979-08-07 15:53:11.180 ,7,0,0.,12.0,0.,12.0,0.,12.0,0.,12.0
1979-08-07 15:53:23.180 ,7,0,0.,12.0,0.,12.0,0.,12.0,0.,12.0
1979-08-07 15:53:35.180 ,7,1,0.,12.0,0.,12.0,0.,12.0,0.,12.0
1979-08-07 15:53:47.180 ,7,1,0.,12.0,0.,12.0,0.,12.0,0.,12.0
1979-08-07 15:53:59.180 ,7,0,0.,12.0,0.,12.0,0.,12.0,0.,12.0
1979-08-07 15:54:11.180 ,7,0,0.,12.0,0.,12.0,0.,12.0,0.,12.0
1979-08-07 15:54:23.180 ,6,1,0.,12.0,0.,12.0,0.,12.0,0.,12.0
1979-08-07 15:54:35.180 ,6,1,0.,12.0,0.,12.0,0.,12.0,0.,12.0
1979-08-07 15:54:47.180 ,6,0,0.,12.0,0.,12.0,0.,12.0,0.,12.0
1979-08-07 15:54:59.180 ,6,0,0.,12.0,0.,12.0,0.,12.0,0.,12.0
1979-08-07 15:55:11.180 ,5,1,0.,12.0,0.,12.0,0.,12.0,0.,12.0
1979-08-07 15:55:23.180 ,5,1,0.,12.0,0.,12.0,0.,12.0,0.,12.0
1979-08-07 15:55:35.180 ,5,0,0.,12.0,0.,12.0,0.,12.0,0.,12.0
1979-08-07 15:55:47.180 ,5,0,0.,12.0,0.,12.0,0.,12.0,0.,12.0
1979-08-07 15:55:59.180 ,4,1,0.,12.0,0.,12.0,0.,12.0,0.,12.0
1979-08-07 15:56:11.180 ,4,1,0.,12.0,0.,12.0,0.,12.0,0.,12.0
1979-08-07 15:56:23.180 ,4,0,0.,12.0,0.,12.0,0.,12.0,0.,12.0
1979-08-07 15:56:35.180 ,4,0,0.,12.0,0.,12.0,0.,12.0,0.,12.0
1979-08-07 15:56:47.180 ,3,1,0.,12.0,0.,12.0,0.,12.0,0.,12.0
1979-08-07 15:56:59.180 ,3,1,0.,12.0,0.,12.0,0.,12.0,0.,12.0
1979-08-07 15:57:11.180 ,3,0,0.,12.0,0.,12.0,0.,12.0,0.,12.0
1979-08-07 15:57:23.180 ,3,0,0.,12.0,0.,12.0,0.,12.0,0.,12.0
1979-08-07 15:57:35.180 ,2,1,0.,12.0,0.,12.0,0.,12.0,0.,12.0
1979-08-07 15:57:47.180 ,2,1,0.,12.0,0.,12.0,0.,12.0,0.,12.0
1979-08-07 15:57:59.180 ,2,0,0.,12.0,0.,12.0,0.,12.0,0.,12.0
1979-08-07 15:58:11.180 ,2,0,0.,12.0,0.,12.0,0.,12.0,0.,12.0
1979-08-07 15:58:23.180 ,1,1,0.,12.0,0.,12.0,0.,12.0,0.,12.0
1979-08-07 15:58:35.180 ,1,1,0.,12.0,0.,12.0,0.,12.0,0.,12.0
1979-08-07 15:58:47.180 ,1,0,0.,12.0,0.,12.0,0.,12.0,0.,12.0
1979-08-07 15:58:59.180 ,1,0,0.,12.0,0.,12.0,0.,12.0,0.,12.0
1979-08-07 15:59:11.180 ,0,1,0.,12.0,0.,12.0,0.,12.0,0.,12.0
1979-08-07 15:59:23.180 ,0,1,0.,12.0,0.,12.0,0.,12.0,0.,12.0
1979-08-07 15:59:35.180 ,0,0,0.,12.0,0.,12.0,0.,12.0,0.,12.0
1979-08-07 15:59:47.180 ,0,0,0.,12.0,0.,12.0,0.,12.0,0.,12.0
1979-08-07 15:59:59.180 ,0,1,0.,12.0,0.,12.0,0.,12.0,0.,12.0
1979-08-07 16:00:11.180 ,0,1,0.,12.0,0.,12.0,0.,12.0,0.,12.0
1979-08-07 16:00:23.180 ,0,0,0.,12.0,0.,12.0,0.,12.0,0.,12.0
1979-08-07 16:00:35.180 ,0,0,0.,12.0,0.,12.0,0.,12.0,0.,12.0
1979-08-07 16:00:47.180 ,1,1,0.,12.0,0.,12.0,0.,12.0,0.,12.0
1979-08-07 16:00:59.180 ,1,1,0.,12.0,0.,12.0,0.,12.0,0.,12.0
1979-08-07 16:01:11.180 ,1,0,0.,12.0,0.,12.0,0.,12.0,0.,12.0
1979-08-07 16:01:23.180 ,1,0,0.,12.0,0.,12.0,0.,12.0,0.,12.0
1979-08-07 16:01:35.180 ,2,1,0.,12.0,0.,12.0,0.,12.0,0.,12.0
1979-08-07 16:01:47.180 ,2,1,0.,12.0,0.,12.0,0.,12.0,0.,12.0
1979-08-07 16:01:59.180 ,2,0,0.,12.0,0.,12.0,0.,12.0,0.,12.0
1979-08-07 16:02:11.180 ,2,0,0.,12.0,0.,12.0,0.,12.0,0.,12.0
1979-08-07 16:02:23.180 ,3,1,0.,12.0,0.,12.0,0.,12.0,0.,12.0
1979-08-07 16:02:35.180 ,3,1,0.,12.0,0.,12.0,0.,12.0,0.,12.0
1979-08-07 16:02:47.180 ,3,0,0.,12.0,0.,12.0,0.,12.0,0.,12.0
1979-08-07 16:02:59.180 ,3,0,0.,12.0,0.,12.0,0.,12.0,0.,12.0
1979-08-07 16:03:11.180 ,4,1,0.,12.0,0.,12.0,0.,12.0,0.,12.0
1979-08-07 16:03:23.180 ,4,1,0.,12.0,0.,12.0,0.,12.0,0.,12.0
1979-08-07 16:03:35.180 ,4,0,0.,12.0,0.,12.0,0.,12.0,0.,12.0
1979-08-07 16:03:47.180 ,4,0,0.,12.0,0.,12.0,0.,12.0,0.,12.0
1979-08-07 16:03:59.180 ,5,1,0.,12.0,0.,12.0,0.,12.0,0.,12.0
1979-08-07 16:04:11.180 ,5,1,0.,12.0,0.,12.0,0.,12.0,0.,12.0
1979-08-07 16:04:23.180 ,5,0,0.,12.0,0.,12.0,0.,12.0,0.,12.0
1979-08-07 16:04:35.180 ,5,0,0.,12.0,0.,12.0,0.,12.0,0.,12.0
1979-08-07 16:04:47.180 ,6,1,0.,12.0,0.,12.0,0.,12.0,0.,12.0
1979-08-07 16:04:59.180 ,6,1,0.,12.0,0.,12.0,0.,12.0,0.,12.0
1979-08-07 16:05:11.180 ,6,0,0.,12.0,0.,12.0,0.,12.0,0.,12.0
1979-08-07 16:05:23.180 ,6,0,0.,12.0,0.,12.0,0.,12.0,0.,12.0
1979-08-07 16:05:35.180 ,7,1,0.,12.0,0.,12.0,0.,12.0,0.,12.0
1979-08-07 16:05:47.180 ,7,1,0.,12.0,0.,12.0,0.,12.0,0.,12.0
1979-08-07 16:05:59.180 ,7,0,0.,12.0,0.,12.0,0.,12.0,0.,12.0
1979-08-07 16:06:11.180 ,7,0,0.,12.0,0.,12.0,0.,12.0,0.,12.0
1979-08-07 16:06:23.180 ,7,1,0.,12.0,0.,12.0,0.,12.0,0.,12.0
1979-08-07 16:06:35.180 ,7,1,0.,12.0,0.,12.0,0.,12.0,0.,12.0
1979-08-07 16:06:47.180 ,7,0,0.,12.0,0.,12.0,0.,12.0,0.,12.0
1979-08-07 16:06:59.180 ,7,0,0.,12.0,0.,12.0,0.,12.0,0.,12.0
1979-08-07 16:07:11.180 ,6,1,0.,12.0,0.,12.0,0.,12.0,0.,12.0
1979-08-07 16:07:23.180 ,6,1,0.,12.0,0.,12.0,0.,12.0,0.,12.0
1979-08-07 16:07:35.180 ,6,0,0.,12.0,0.,12.0,0.,12.0,0.,12.0
1979-08-07 16:07:47.180 ,6,0,0.,12.0,0.,12.0,0.,12.0,0.,12.0
1979-08-07 16:07:59.180 ,5,1,0.,12.0,0.,12.0,0.,12.0,0.,12.0
1979-08-07 16:08:11.180 ,5,1,0.,12.0,0.,12.0,0.,12.0,0.,12.0
1979-08-07 16:08:23.180 ,5,0,0.,12.0,0.,12.0,0.,12.0,0.,12.0
1979-08-07 16:08:35.180 ,5,0,0.,12.0,0.,12.0,0.,12.0,0.,12.0
1979-08-07 16:08:47.180 ,4,1,0.,12.0,0.,12.0,0.,12.0,0.,12.0
1979-08-07 16:08:59.180 ,4,1,0.,12.0,0.,12.0,0.,12.0,0.,12.0
1979-08-07 16:09:11.180 ,4,0,0.,12.0,0.,12.0,0.,12.0,0.,12.0
1979-08-07 16:09:23.180 ,4,0,0.,12.0,0.,12.0,0.,12.0,0.,12.0
1979-08-07 16:09:35.180 ,3,1,0.,12.0,0.,12.0,0.,12.0,0.,12.0
1979-08-07 16:09:47.180 ,3,1,0.,12.0,0.,12.0,0.,12.0,0.,12.0
1979-08-07 16:09:59.180 ,3,0,0.,12.0,0.,12.0,0.,12.0,0.,12.0
1979-08-07 16:10:11.180 ,3,0,0.,12.0,0.,12.0,0.,12.0,0.,12.0
1979-08-07 16:10:23.180 ,2,1,0.,12.0,0.,12.0,0.,12.0,0.,12.0
1979-08-07 16:10:35.180 ,2,1,0.,12.0,0.,12.0,0.,12.0,0.,12.0
1979-08-07 16:10:47.180 ,2,0,0.,12.0,0.,12.0,0.,12.0,0.,12.0
1979-08-07 16:10:59.180 ,2,0,0.,12.0,0.,12.0,0.,12.0,0.,12.0
1979-08-07 16:11:11.180 ,1,1,0.,12.0,0.,12.0,0.,12.0,0.,12.0
1979-08-07 16:11:23.180 ,1,1,0.,12.0,0.,12.0,0.,12.0,0.,12.0
1979-08-07 16:11:35.180 ,1,0,0.,12.0,0.,12.0,0.,12.0,0.,12.0
1979-08-07 16:11:47.180 ,1,0,0.,12.0,0.,12.0,0.,12.0,0.,12.0
1979-08-07 16:11:59.180 ,0,1,0.,12.0,0.,12.0,0.,12.0,0.,12.0
1979-08-07 16:12:11.180 ,0,1,0.,12.0,0.,12.0,0.,12.0,0.,12.0
1979-08-07 16:12:23.180 ,0,0,0.,12.0,0.,12.0,0.,12.0,0.,12.0
1979-08-07 16:12:35.180 ,0,0,0.,12.0,0.,12.0,0.,12.0,0.,12.0
1979-08-07 16:12:47.180 ,0,1,0.,12.0,0.,12.0,0.,12.0,0.,12.0
1979-08-07 16:12:59.180 ,0,1,0.,12.0,0.,12.0,0.,12.0,0.,12.0
1979-08-07 16:13:11.180 ,0,0,0.,12.0,0.,12.0,0.,12.0,0.,12.0
1979-08-07 16:13:23.180 ,0,0,0.,12.0,0.,12.0,0.,12.0,0.,12.0
1979-08-07 16:13:35.180 ,1,1,0.,12.0,0.,12.0,0.,12.0,0.,12.0
1979-08-07 16:13:47.180 ,1,1,0.,12.0,0.,12.0,0.,12.0,0.,12.0
1979-08-07 16:13:59.180 ,1,0,0.,12.0,0.,12.0,0.,12.0,0.,12.0
1979-08-07 16:14:11.180 ,1,0,0.,12.0,0.,12.0,0.,12.0,0.,12.0
1979-08-07 16:14:23.180 ,2,1,0.,12.0,0.,12.0,0.,12.0,0.,12.0
1979-08-07 16:14:35.180 ,2,1,0.,12.0,0.,12.0,0.,12.0,0.,12.0
1979-08-07 16:14:47.180 ,2,0,0.,12.0,0.,12.0,0.,12.0,0.,12.0
1979-08-07 16:14:59.180 ,2,0,0.,12.0,0.,12.0,0.,12.0,0.,12.0
1979-08-07 16:15:11.180 ,3,1,0.,12.0,0.,12.0,0.,12.0,0.,12.0
1979-08-07 16:15:23.180 ,3,1,0.,12.0,0.,12.0,0.,12.0,0.,12.0
1979-08-07 16:15:35.180 ,3,0,0.,12.0,0.,12.0,0.,12.0,0.,12.0
1979-08-07 16:15:47.180 ,3,0,0.,12.0,0.,12.0,0.,12.0,0.,12.0
1979-08-07 16:15:59.180 ,4,1,0.,12.0,0.,12.0,0.,12.0,0.,12.0
1979-08-07 16:16:11.180 ,4,1,0.,12.0,0.,12.0,0.,12.0,0.,12.0
1979-08-07 16:16:23.180 ,4,0,0.,12.0,0.,12.0,0.,12.0,0.,12.0
1979-08-07 16:16:35.180 ,4,0,0.,12.0,0.,12.0,0.,12.0,0.,12.0
1979-08-07 16:16:47.180 ,5,1,0.,12.0,0.,12.0,0.,12.0,0.,12.0
1979-08-07 16:16:59.180 ,5,1,0.,12.0,0.,12.0,0.,12.0,0.,12.0
1979-08-07 16:17:11.180 ,5,0,0.,12.0,0.,12.0,0.,12.0,0.,12.0
1979-08-07 16:17:23.180 ,5,0,0.,12.0,0.,12.0,0.,12.0,0.,12.0
1979-08-07 16:17:35.180 ,6,1,0.,12.0,0.,12.0,0.,12.0,0.,12.0
1979-08-07 16:17:47.180 ,6,1,0.,12.0,0.,12.0,0.,12.0,0.,12.0